Beach, ND

9:42 PM MDT on April 30, 2017 (GMT -0600)
Beach

Weather History for K20U - December, 2012

Change the Weather History Date:

Wednesday, December 5, 2012

  Actual Average (KGDV) Record (KGDV)
Temperature  
Mean Temperature 42 °F -  
Max Temperature 55 °F 33 °F 50 °F (2012)
Min Temperature 28 °F 14 °F -13 °F (2005)
Degree Days  
Heating Degree Days 24    
Moisture  
Dew Point 25 °F    
Average Humidity 55    
Maximum Humidity 75    
Minimum Humidity 38    
Precipitation  
Precipitation 0.00 in - - ()
Sea Level Pressure  
Sea Level Pressure 29.75 in    
Wind  
Wind Speed 13 mph (SW)    
Max Wind Speed 25 mph    
Max Gust Speed 33 mph    
Visibility 10 miles    
Events Rain    
Averages and records for this station are not official NWS values.
T = Trace of Precipitation, MM = Missing Value Source: NWS Daily Summary

Daily Weather History Graph

Daily Weather History Graph

Search for Another Location

Airport or City:

Trip Planner

Search our weather history database for the weather conditions in past years. The results will help you decide how hot, cold, wet, or windy it might be!

Date:

Astronomy

Dec. 05, 2012 Rise Set
Actual Time 7:25 AM MST 4:07 PM MST
Civil Twilight 6:50 AM MST 4:42 PM MST
Nautical Twilight 6:12 AM MST 5:20 PM MST
Astronomical Twilight 5:35 AM MST 5:57 PM MST
Moon 11:19 PM MST (12/5) 11:32 AM MST (12/5)
Length of Visible Light 9h 51m
Length of Day
8h 41m
Waning Gibbous, 59% of the Moon is Illuminated
Dec 5
Waning Gibbous
Dec 6
Last Quarter
Dec 13
New
Dec 19
First Quarter
Dec 28
Full

Hourly Weather History & Observations

Time (MST) Temp. Windchill Dew Point Humidity Pressure Visibility Wind Dir Wind Speed Gust Speed Precip Events Conditions
12:15 AM 30.2 °F 19.8 °F 21.2 °F 69% 29.93 in 10.0 mi SSE 13.8 mph - N/A   Clear
12:55 AM 30.2 °F 20.8 °F 21.2 °F 69% 29.91 in 10.0 mi South 11.5 mph - N/A   Clear
1:15 AM 30.2 °F 20.8 °F 21.2 °F 69% 29.90 in 10.0 mi South 11.5 mph - N/A   Clear
1:35 AM 28.4 °F 19.1 °F 21.2 °F 74% 29.90 in 10.0 mi South 10.4 mph - N/A   Clear
1:55 AM 30.2 °F 20.8 °F 21.2 °F 69% 29.88 in 10.0 mi SSE 11.5 mph - N/A   Clear
2:15 AM 30.2 °F 20.2 °F 21.2 °F 69% 29.87 in 10.0 mi SSE 12.7 mph 19.6 mph N/A   Mostly Cloudy
2:35 AM 32.0 °F 22.5 °F 21.2 °F 64% 29.86 in 10.0 mi SSE 12.7 mph 20.7 mph N/A   Overcast
2:55 AM 32.0 °F 23.0 °F 19.4 °F 60% 29.85 in 10.0 mi South 11.5 mph 16.1 mph N/A   Overcast
3:15 AM 32.0 °F 24.8 °F 21.2 °F 64% 29.84 in 10.0 mi South 8.1 mph - N/A   Partly Cloudy
3:35 AM 32.0 °F 24.8 °F 21.2 °F 64% 29.83 in 10.0 mi South 8.1 mph - N/A   Clear
3:55 AM 30.2 °F 20.8 °F 21.2 °F 69% 29.82 in 10.0 mi South 11.5 mph - N/A   Clear
4:15 AM 30.2 °F 22.6 °F 21.2 °F 69% 29.81 in 10.0 mi South 8.1 mph - N/A   Clear
4:35 AM 30.2 °F 20.8 °F 21.2 °F 69% 29.80 in 10.0 mi South 11.5 mph - N/A   Clear
4:55 AM 30.2 °F 20.8 °F 21.2 °F 69% 29.80 in 10.0 mi SSE 11.5 mph - N/A   Clear
5:15 AM 32.0 °F 23.6 °F 21.2 °F 64% 29.79 in 10.0 mi SSE 10.4 mph - N/A   Clear
5:35 AM 32.0 °F 23.0 °F 21.2 °F 64% 29.78 in 10.0 mi SSE 11.5 mph - N/A Rain Light Rain
5:55 AM 32.0 °F 22.5 °F 21.2 °F 64% 29.78 in 10.0 mi South 12.7 mph - N/A   Clear
7:35 AM 32.0 °F 24.2 °F 23.0 °F 69% 29.74 in 10.0 mi SSE 9.2 mph - N/A   Partly Cloudy
7:55 AM 32.0 °F 25.6 °F 23.0 °F 69% 29.74 in 10.0 mi South 6.9 mph - N/A   Partly Cloudy
8:15 AM 32.0 °F 25.6 °F 24.8 °F 75% 29.73 in 10.0 mi SSE 6.9 mph - N/A   Clear
8:35 AM 33.8 °F 27.7 °F 24.8 °F 70% 29.72 in 10.0 mi South 6.9 mph - N/A Rain Light Rain
8:55 AM 37.4 °F 31.4 °F 24.8 °F 60% 29.72 in 10.0 mi South 8.1 mph - N/A   Clear
9:15 AM 37.4 °F 31.4 °F 26.6 °F 65% 29.72 in 10.0 mi South 8.1 mph - N/A Rain Light Rain
9:35 AM 41.0 °F 37.1 °F 26.6 °F 57% 29.71 in 10.0 mi SSE 5.8 mph - N/A   Clear
9:55 AM 46.4 °F 45.2 °F 28.4 °F 50% 29.71 in 10.0 mi WSW 3.5 mph - N/A   Clear
10:15 AM 48.2 °F - 30.2 °F 50% 29.70 in 10.0 mi SW 12.7 mph - N/A   Clear
10:35 AM 50.0 °F - 30.2 °F 47% 29.68 in 10.0 mi SSW 11.5 mph - N/A   Clear
10:55 AM 50.0 °F - 30.2 °F 47% 29.67 in 10.0 mi SW 9.2 mph - N/A   Clear
11:15 AM 53.6 °F - 30.2 °F 41% 29.66 in 10.0 mi SW 11.5 mph - N/A   Clear
11:35 AM 53.6 °F - 30.2 °F 41% 29.66 in 10.0 mi SW 10.4 mph - N/A   Scattered Clouds
11:55 AM 55.4 °F - 30.2 °F 38% 29.65 in 10.0 mi SW 10.4 mph - N/A   Partly Cloudy
12:15 PM 53.6 °F - 30.2 °F 41% 29.65 in 10.0 mi SW 11.5 mph - N/A   Clear
12:35 PM 53.6 °F - 30.2 °F 41% 29.64 in 10.0 mi SW 10.4 mph - N/A   Clear
12:55 PM 53.6 °F - 30.2 °F 41% 29.63 in 10.0 mi WSW 15.0 mph 19.6 mph N/A Rain Light Rain
1:15 PM 53.6 °F - 30.2 °F 41% 29.63 in 10.0 mi WSW 12.7 mph - N/A   Clear
1:35 PM 53.6 °F - 30.2 °F 41% 29.62 in 10.0 mi WSW 12.7 mph 21.9 mph N/A   Scattered Clouds
1:55 PM 53.6 °F - 30.2 °F 41% 29.62 in 10.0 mi WSW 17.3 mph 23.0 mph N/A   Mostly Cloudy
2:15 PM 53.6 °F - 30.2 °F 41% 29.62 in 10.0 mi WSW 16.1 mph 20.7 mph N/A   Mostly Cloudy
2:35 PM 53.6 °F - 30.2 °F 41% 29.62 in 10.0 mi WSW 13.8 mph - N/A   Partly Cloudy
2:55 PM 53.6 °F - 30.2 °F 41% 29.62 in 10.0 mi WSW 13.8 mph - N/A   Clear
3:15 PM 51.8 °F - 30.2 °F 44% 29.63 in 10.0 mi WSW 15.0 mph - N/A   Partly Cloudy
3:35 PM 50.0 °F - 30.2 °F 47% 29.63 in 10.0 mi WSW 13.8 mph - N/A   Partly Cloudy
3:55 PM 50.0 °F - 30.2 °F 47% 29.64 in 10.0 mi WSW 15.0 mph - N/A   Scattered Clouds
4:15 PM 50.0 °F - 30.2 °F 47% 29.64 in 10.0 mi WSW 13.8 mph 18.4 mph N/A   Partly Cloudy
4:35 PM 48.2 °F - 30.2 °F 50% 29.65 in 10.0 mi WSW 13.8 mph - N/A   Clear
4:55 PM 46.4 °F 40.4 °F 30.2 °F 53% 29.65 in 10.0 mi West 13.8 mph - N/A   Clear
5:15 PM 44.6 °F 38.4 °F 28.4 °F 53% 29.66 in 10.0 mi West 12.7 mph - N/A   Clear
5:35 PM 44.6 °F 37.8 °F 30.2 °F 57% 29.67 in 10.0 mi West 15.0 mph - N/A   Clear
5:55 PM 46.4 °F 38.1 °F 32.0 °F 57% 29.71 in 10.0 mi NW 24.2 mph 31.1 mph N/A   Clear
6:15 PM 46.4 °F 38.7 °F 26.6 °F 46% 29.73 in 10.0 mi NW 20.7 mph 33.4 mph N/A   Partly Cloudy
6:35 PM 44.6 °F 35.5 °F 26.6 °F 49% 29.75 in 10.0 mi NW 25.3 mph 31.1 mph N/A   Mostly Cloudy
6:55 PM 44.6 °F 35.9 °F 24.8 °F 46% 29.76 in 10.0 mi NNW 23.0 mph 33.4 mph N/A   Mostly Cloudy
7:15 PM 42.8 °F 33.8 °F 23.0 °F 46% 29.78 in 10.0 mi NW 21.9 mph 31.1 mph N/A   Overcast
7:35 PM 41.0 °F 31.4 °F 23.0 °F 49% 29.79 in 10.0 mi NW 21.9 mph 29.9 mph N/A   Overcast
7:55 PM 41.0 °F 32.2 °F 23.0 °F 49% 29.80 in 10.0 mi NW 18.4 mph 25.3 mph N/A   Overcast
8:15 PM 39.2 °F 29.8 °F 23.0 °F 52% 29.82 in 10.0 mi NW 18.4 mph 27.6 mph N/A   Overcast
8:35 PM 39.2 °F 30.2 °F 23.0 °F 52% 29.82 in 10.0 mi NW 17.3 mph 25.3 mph N/A   Overcast
8:55 PM 37.4 °F 28.2 °F 23.0 °F 56% 29.83 in 10.0 mi WNW 16.1 mph 21.9 mph N/A   Scattered Clouds
9:15 PM 35.6 °F 25.5 °F 23.0 °F 60% 29.84 in 10.0 mi NW 17.3 mph 25.3 mph N/A   Clear
9:35 PM 35.6 °F 25.5 °F 23.0 °F 60% 29.84 in 10.0 mi NW 17.3 mph 24.2 mph N/A   Clear
9:55 PM 35.6 °F 25.2 °F 21.2 °F 56% 29.86 in 10.0 mi NW 18.4 mph 26.5 mph N/A   Clear
10:15 PM 33.8 °F 22.8 °F 19.4 °F 56% 29.86 in 10.0 mi WNW 18.4 mph - N/A   Clear
10:35 PM 33.8 °F 22.8 °F 19.4 °F 56% 29.87 in 10.0 mi WNW 18.4 mph - N/A   Clear
10:55 PM 32.0 °F 21.2 °F 17.6 °F 55% 29.88 in 10.0 mi WNW 16.1 mph - N/A   Clear
11:15 PM 32.0 °F 20.5 °F 15.8 °F 51% 29.88 in 10.0 mi WNW 18.4 mph - N/A   Clear
11:35 PM 32.0 °F 21.2 °F 15.8 °F 51% 29.86 in 10.0 mi WNW 16.1 mph - N/A   Clear
11:55 PM 32.0 °F 21.2 °F 15.8 °F 51% 29.87 in 10.0 mi West 16.1 mph - N/A   Clear